Location: Cassagne
(43.1218°N, 0.9901°E)
Time: 23:23:39
(UTC+00:00)

STARLINK-1069 - Pass Details

Date: 17 February 2020
Orbit: 375 x 384 km, 53.0° (Epoch: 05 April)

Event Time Altitude Azimuth Distance (km) Brightness Sun altitude
Exits shadow 05:16:57 27° 195° (SSW) 781 4.2 -17.9°
Maximum altitude 05:18:16 44° 138° (SE) 542 3.9 -17.7°
Drops below altitude 10° 05:21:17 10° 65° (ENE) 1,409 6.7 -17.1°
Sets 05:23:23 0° 59° (ENE) 2,264 7.8 -16.8°
